Погода в Гарях

Россия / Республика Марий Эл     56°37′40″N   48°01′49″E
темп.,
°C
ветер,
м/с
пор.,
м/с
влажн.,
%
обл.,
%
осадки,
мм/ч
давл.,
гПа
погр.,
м
8 августа, пн
пн800:00+19ююз116885 0.0 102011
03:00+18ю226896 0.0 102016
06:00+19ссз007298 0.0 102139
09:00+25ююв115321 0.0 1020391
12:00+29з11425 0.0 10201902
15:00+29ссв223725 0.0 10192468
18:00+24ю346696 0.0 101993
21:00+22сз236483 0.0 102048
9 августа, вт
вт900:00+21всв017487 0.0 102011
03:00+20зсз117680 0.0 102013
06:00+20сз127544 0.0 102075
09:00+26зюз11545 0.0 1020465
12:00+29юз1140100 0.0 10191570
15:00+29юв223998 0.0 10181951
18:00+25ююв225987 0.0 101717
21:00+18сз4891100 1.8 1019254
10 августа, ср
ср1000:00+16всв239697 0.6 101862
03:00+16зюз1194100 0.6 101816
06:00+17зсз2491100 0.0 1018140
09:00+21ссз2370100 0.0 1018454
12:00+20ссз1280100 0.1 1018220
15:00+18с2495100 1.1 1018253
18:00+17сз3698100 5.9 1018349
21:00+16с379599 8.1 1019298
11 августа, чт
чт1100:00+13с369724 0.0 1020170
03:00+11ссз36960 0.0 1020132
06:00+12сз39915 0.0 1022314
09:00+17сз47635 0.0 1022852
12:00+20ссз56480 0.0 10221593
15:00+21сз464513 0.0 10222035
18:00+19з356330 0.0 1022156
21:00+17сз236596 0.0 102261
12 августа, пт
пт1200:00+14зюз2278100 0.0 102332
03:00+12зюз248165 0.0 102368
06:00+14з3880100 0.0 1023212
09:00+19з485880 0.0 1023569
12:00+23з584394 0.0 10211518
15:00+24з58443 0.0 10211736
18:00+21з38590 0.0 1020278
21:00+17з38725 0.0 1021148